Weather in Bath

United Kingdom     51°22′45″N   2°22′03″W
temp.,
°C
wind,
m/s
gust,
m/s
humid.,
%
clouds,
%
prec.,
mm/h
press.,
hPa
HPBL,
m
17 september, fri
fri1701:00+12ssw2293100 0.0 101719
04:00+12s2397100 0.0 101451
07:00+11s2497100 0.0 101494
10:00+16s4779100 0.0 1014683
13:00+19s5763100 0.0 10131286
16:00+18s4673100 0.1 10121076
19:00+16sse358260 0.3 101291
22:00+13sse229413 0.0 101417
18 september, sat
sat1801:00+12ese119533 0.0 101310
04:00+12e1193100 0.0 101315
07:00+13e1190100 0.0 101318
10:00+15ese2682100 0.0 1013238
13:00+18sse477396 0.0 1013416
16:00+21sse565926 0.0 10121072
19:00+17sse377889 0.2 1012169
22:00+14sse2283100 0.0 101314
19 september, sun
sun1901:00+13sse118691 0.0 101310
04:00+14wsw2287100 0.1 101227
07:00+13w1298100 0.3 101383
10:00+15wnw238988 0.1 1014310
13:00+14nnw3589100 0.4 1015345
16:00+15nnw3483100 0.6 1015376
19:00+13n2693100 0.6 1016244
22:00+12nnw3992100 0.0 1017343
20 september, mon
mon2001:00+12n4118197 0.0 1018467
04:00+11nnw5118783 0.0 1019381
07:00+11nnw51085100 0.0 1020401
10:00+12n598695 0.0 1022398
13:00+15n567666 0.0 1023682
16:00+18n456678 0.0 10231063
19:00+16n3673100 0.0 1025245
22:00+15nnw367484 0.0 1026257
21 september, tue
tue2101:00+9nnw228421 0.0 102714
04:00+8nnw2281100 0.0 102813
07:00+9nnw2278100 0.0 102916
10:00+14nnw3468100 0.0 1030301
13:00+17n4562100 0.0 1030869
16:00+19n4546100 0.0 10291177
19:00+14nne3561100 0.0 103092
22:00+11n336755 0.0 103233